TimeEST,TemperatureF,Dew PointF,Humidity,Sea Level PressureIn,VisibilityMPH,Wind Direction,Wind SpeedMPH,Gust SpeedMPH,PrecipitationIn,Events,Conditions,WindDirDegrees,DateUTC
12:55 AM,25.7,18.7,75,30.63,10.0,WNW,6.9,-,N/A,,Partly Cloudy,300,2012-11-19 05:55:00
1:55 AM,26.8,18.7,72,30.61,10.0,NNW,5.8,-,N/A,,Partly Cloudy,330,2012-11-19 06:55:00
2:55 AM,26.2,18.9,74,30.60,10.0,WNW,4.6,-,N/A,,Clear,300,2012-11-19 07:55:00
3:55 AM,28.0,20.8,74,30.59,10.0,NW,6.9,-,N/A,,Mostly Cloudy,310,2012-11-19 08:55:00
4:36 AM,26.6,19.4,74,30.58,10.0,NNW,6.9,-,N/A,,Scattered Clouds,330,2012-11-19 09:36:00
4:55 AM,26.4,18.5,72,30.57,10.0,North,4.6,-,N/A,,Partly Cloudy,350,2012-11-19 09:55:00
5:55 AM,26.2,18.1,71,30.57,10.0,NNW,4.6,-,N/A,,Mostly Cloudy,340,2012-11-19 10:55:00
6:55 AM,26.6,18.1,70,30.57,10.0,NW,6.9,-,N/A,,Mostly Cloudy,310,2012-11-19 11:55:00
7:55 AM,32.2,20.3,62,30.56,10.0,NNW,6.9,-,N/A,,Scattered Clouds,340,2012-11-19 12:55:00
8:55 AM,36.5,21.2,54,30.55,10.0,NW,4.6,-,N/A,,Partly Cloudy,320,2012-11-19 13:55:00
9:55 AM,40.6,21.9,47,30.53,10.0,North,6.9,-,N/A,,Partly Cloudy,360,2012-11-19 14:55:00
10:55 AM,45.0,25.2,46,30.50,10.0,Variable,3.5,-,N/A,,Partly Cloudy,0,2012-11-19 15:55:00
11:55 AM,46.6,30.7,54,30.47,10.0,Calm,Calm,-,N/A,,Scattered Clouds,0,2012-11-19 16:55:00
12:55 PM,47.7,32.5,56,30.45,10.0,East,3.5,-,N/A,,Mostly Cloudy,90,2012-11-19 17:55:00
1:55 PM,47.5,32.5,56,30.41,10.0,Variable,5.8,-,N/A,,Mostly Cloudy,0,2012-11-19 18:55:00
2:55 PM,45.3,34.0,65,30.41,10.0,ESE,6.9,-,N/A,,Scattered Clouds,120,2012-11-19 19:55:00
3:55 PM,43.0,33.8,70,30.40,10.0,ESE,5.8,-,N/A,,Scattered Clouds,110,2012-11-19 20:55:00
4:55 PM,40.5,33.8,77,30.38,10.0,Calm,Calm,-,N/A,,Partly Cloudy,0,2012-11-19 21:55:00
5:55 PM,37.6,34.2,87,30.38,10.0,Calm,Calm,-,N/A,,Partly Cloudy,0,2012-11-19 22:55:00
6:55 PM,33.4,31.5,92,30.37,10.0,Calm,Calm,-,N/A,,Partly Cloudy,0,2012-11-19 23:55:00
7:55 PM,34.5,33.3,95,30.35,10.0,WNW,3.5,-,N/A,,Clear,290,2012-11-20 00:55:00
8:55 PM,32.9,31.8,96,30.33,8.0,WNW,3.5,-,N/A,Fog,Patches of Fog,300,2012-11-20 01:55:00
9:55 PM,31.8,31.1,97,30.31,10.0,WNW,3.5,-,N/A,,Clear,300,2012-11-20 02:55:00
10:55 PM,30.4,29.5,96,30.29,8.0,WNW,3.5,-,N/A,Fog,Patches of Fog,300,2012-11-20 03:55:00
11:55 PM,28.9,28.2,97,30.28,8.0,Calm,Calm,-,N/A,Fog,Patches of Fog,0,2012-11-20 04:55:00